Probability
3 4 5 5 7 11 11 9 7 7 6 4 4 4 4 3 2 2 2 1 0 0 0 0 0 0 0 0 0 0 0 0 0 0 0 0 0 0
4 5 5 5 7 9 9 8 7 7 6 4 4 4 4 3 2 2 2 1 0 0 0 0 0 0 0 0 0 0 0 0 0 0 0 0 0 0
9 8 7 5 5 6 7 8 7 7 6 5 4 4 4 3 2 3 2 1 0 0 0 0 0 0 0 0 0 0 0 0 0 0 0 0 0 0
14 13 10 5 4 5 7 8 7 7 7 7 5 4 4 3 3 3 3 1 0 0 0 0 0 0 0 0 0 0 0 0 0 0 0 0 0 0
16 14 9 5 4 6 8 8 7 7 8 8 5 4 4 3 3 3 2 1 0 0 0 0 0 0 0 0 0 0 0 0 0 0 0 0 0 0
16 12 7 4 4 6 7 7 6 7 7 7 5 4 3 2 2 1 1 1 0 0 0 0 0 0 0 0 0 0 0 0 0 0 0 0 0 0
18 13 7 4 3 4 5 5 6 6 5 5 5 3 1 1 1 0 0 0 0 0 0 0 0 1 0 0 0 0 0 0 0 0 0 0 0 0
21 16 9 5 4 4 4 4 4 4 4 4 4 3 1 1 0 0 0 0 0 0 0 0 0 0 0 0 0 0 0 0 0 0 0 0 0 0
22 18 10 6 5 5 4 3 3 2 2 3 3 3 3 2 1 0 0 0 0 0 0 0 0 0 0 0 0 0 0 0 0 0 0 0 0 0
22 17 11 7 7 6 5 5 4 2 1 2 2 3 3 2 1 0 0 0 0 0 0 0 0 0 0 0 0 0 0 0 0 0 0 0 0 0
20 15 10 8 7 5 5 6 4 3 2 1 1 1 2 2 1 0 0 0 0 0 0 0 0 1 1 0 0 0 0 0 0 0 0 0 0 0
18 15 10 6 4 3 5 6 5 3 3 2 1 1 1 1 0 0 0 0 0 0 0 0 0 1 1 0 0 0 0 0 0 0 0 0 0 0
17 14 9 4 1 1 3 5 5 4 3 3 3 2 2 1 1 2 1 0 0 0 0 0 0 0 0 0 0 1 1 1 1 0 0 0 0 0
16 12 7 2 0 0 1 3 3 3 3 3 2 2 2 3 3 4 4 2 1 1 1 1 0 0 0 0 0 2 3 4 4 2 1 0 0 0
12 8 4 1 0 0 0 1 1 1 2 1 1 1 1 3 3 4 5 5 4 4 4 4 3 2 1 0 1 2 4 5 5 3 2 1 1 1
6 5 2 0 0 0 1 1 1 0 0 0 0 0 1 2 3 3 3 5 6 6 7 8 8 7 4 2 2 4 4 4 4 3 2 2 2 1
5 4 3 2 2 2 2 2 2 1 1 1 1 0 0 1 1 1 1 2 3 4 6 8 10 10 8 6 5 5 4 3 3 2 1 1 1 1
5 6 7 6 6 6 4 4 3 3 2 2 2 1 1 1 1 0 0 0 1 2 5 6 8 8 7 7 6 5 4 2 2 2 1 0 0 0
7 9 10 11 10 9 7 6 6 6 5 5 5 4 4 3 2 1 1 1 2 4 5 6 6 6 5 5 4 3 2 1 1 1 0 0 0 0
9 10 12 12 12 11 10 10 10 9 8 8 8 8 7 5 3 3 3 4 4 5 5 5 5 4 4 4 3 2 1 0 0 0 0 0 0 0
11 11 12 13 12 12 12 13 13 12 11 10 10 10 9 7 4 3 3 4 4 4 4 4 4 3 3 3 2 2 1 0 0 0 0 0 0 0
14 14 14 13 12 12 14 15 15 13 11 10 10 10 9 8 7 5 4 3 3 3 3 3 3 3 2 1 1 1 0 0 0 0 0 0 0 0
16 17 17 15 13 13 16 17 16 14 11 10 10 10 10 9 9 7 5 4 3 3 3 3 3 2 1 0 0 0 0 0 0 0 0 0 0 0
Wind_Speed
2 2 2 1 1 1 1 1 1 2 2 2 2 3 2 3 5 4 4 6 6 6 6 6 7 7 7 7 7 7 7 7 7 7 7 7 6 5
1 2 2 2 2 1 1 0 0 1 2 2 2 3 2 4 5 4 5 8 6 6 6 6 6 6 6 7 7 7 7 7 7 7 7 7 7 7
1 2 2 2 2 1 1 1 1 1 3 2 2 3 2 3 3 3 5 4 4 6 6 6 6 6 6 6 6 6 6 6 7 7 7 7 7 6
2 2 2 2 2 2 1 1 1 2 3 3 3 2 2 3 3 3 4 5 4 6 7 7 6 6 5 5 5 5 5 5 5 6 6 6 6 6
1 1 1 1 1 2 1 1 1 1 2 3 3 2 2 2 2 2 3 3 4 6 8 7 7 7 6 5 5 5 4 4 4 4 5 5 5 4
1 1 2 1 2 2 1 1 0 1 2 2 2 2 2 2 2 2 1 2 2 4 5 7 8 8 7 7 6 6 5 4 4 4 4 3 3 3
1 1 2 4 5 3 2 1 1 0 1 1 2 2 2 2 2 2 2 2 2 2 3 4 4 4 5 7 8 8 7 6 5 5 4 4 3 3
1 0 2 4 3 3 3 3 2 1 1 0 1 2 2 2 1 2 1 1 1 1 2 3 5 5 5 5 9 11 10 9 8 7 6 5 5 4
1 0 1 2 3 2 1 1 2 2 1 1 0 1 1 2 2 2 2 2 2 2 2 2 3 4 4 6 13 13 12 11 10 9 8 7 6 6
2 1 1 1 1 0 2 1 1 1 2 2 1 1 1 1 2 3 3 2 2 2 2 2 3 3 3 4 12 15 14 12 11 10 9 8 8 7
2 2 2 2 1 1 2 2 1 1 0 1 2 2 3 3 2 1 2 2 2 2 2 2 2 2 2 3 7 14 14 13 12 11 10 9 9 7
3 3 3 2 3 3 3 2 3 2 1 1 2 3 3 4 5 3 2 2 2 2 2 2 2 2 2 2 4 6 7 10 12 12 12 11 10 5
2 2 3 5 5 5 4 3 3 2 2 3 3 3 3 3 4 4 4 3 3 3 2 2 2 2 2 1 2 4 6 6 7 7 11 12 12 9
2 2 2 6 6 5 4 4 4 3 3 3 3 3 3 3 3 4 5 4 4 4 3 2 2 2 2 2 2 3 4 5 5 6 6 9 11 12
2 1 2 5 5 5 6 6 5 4 4 3 4 3 3 3 3 3 4 4 5 5 4 4 3 3 3 3 3 2 3 3 4 4 5 6 6 6
3 2 4 6 5 4 4 5 5 4 4 4 3 3 3 3 3 3 4 4 4 4 5 5 5 4 4 4 3 3 3 3 3 4 4 4 5 5
3 3 3 3 4 4 4 4 4 4 5 4 4 3 3 3 3 3 3 3 4 4 4 3 4 5 5 4 4 4 3 3 3 3 3 4 4 5
4 4 5 5 5 5 5 5 5 5 5 5 4 4 4 3 3 2 3 3 3 3 3 2 2 2 2 3 4 4 3 3 2 3 2 3 3 3
5 5 5 5 5 5 5 5 5 4 4 4 5 4 4 3 3 3 3 3 3 3 3 3 3 3 4 4 4 5 4 3 3 3 3 3 3 3
6 6 5 5 5 5 4 4 4 3 3 3 3 3 3 3 3 3 3 4 3 3 3 3 3 4 4 4 3 3 6 5 3 3 3 2 1 1
6 5 5 5 5 4 3 3 3 3 3 3 3 3 3 3 4 4 4 5 4 3 4 3 3 4 3 2 2 2 3 5 4 3 3 2 2 2
5 5 4 5 4 3 3 3 4 3 3 3 3 3 4 3 4 5 4 3 3 3 3 2 2 2 2 2 3 3 2 2 3 3 4 4 3 3
5 5 4 4 4 3 3 4 4 3 3 3 3 3 3 3 3 3 3 3 3 3 2 2 2 2 2 3 3 3 3 3 2 2 2 3 5 5
Wind_Direction
17 21 357 351 31 77 105 160 149 148 143 137 123 115 126 117 144 136 119 116 112 104 96 90 85 79 76 77 78 80 82 82 85 86 89 95 98 104
49 41 11 0 21 41 83 87 52 129 136 142 135 140 138 138 146 137 128 129 123 124 118 109 103 97 89 84 82 82 86 89 91 92 94 95 92 92
34 53 31 24 12 20 42 71 67 104 127 128 126 131 127 117 139 152 151 148 147 147 140 131 122 114 104 98 93 91 91 94 96 98 99 98 97 95
49 43 19 22 17 12 12 51 67 107 131 140 142 144 145 142 159 186 167 159 155 160 157 151 144 137 129 120 112 105 101 102 102 103 103 103 104 104
73 64 36 26 10 13 14 43 42 101 124 146 152 147 152 157 158 199 158 151 161 159 164 163 160 156 150 143 136 130 125 120 115 110 107 107 109 110
91 85 62 37 25 349 5 41 25 111 142 156 152 152 147 160 168 196 168 184 176 171 168 165 169 171 169 164 160 155 153 149 143 135 129 127 124 120
93 98 97 81 65 39 27 9 14 44 164 174 165 148 153 159 194 210 201 189 183 169 159 171 172 181 184 185 183 179 173 172 170 168 165 165 167 168
141 108 137 126 105 86 63 51 49 78 44 359 169 169 169 170 190 217 210 182 212 188 182 197 180 190 193 187 187 185 184 184 185 186 187 190 195 199
167 225 273 134 154 156 155 128 80 84 129 205 237 230 179 171 196 226 218 213 225 204 189 222 204 198 191 190 182 185 187 190 193 195 198 202 206 210
182 211 254 130 209 174 213 203 202 213 235 222 220 232 172 178 218 226 228 221 218 217 196 232 222 214 192 178 185 186 189 192 196 200 204 208 213 219
198 201 210 176 180 209 232 236 230 223 228 148 167 180 176 186 199 248 239 226 236 225 210 218 230 217 192 184 193 192 193 196 200 204 209 214 217 220
204 184 189 188 182 203 230 230 240 248 241 194 196 215 212 212 210 212 237 245 253 242 215 212 227 218 230 197 180 185 198 204 206 210 213 218 215 212
230 204 188 178 186 213 240 237 237 246 246 234 220 211 213 213 210 213 219 226 242 250 217 207 233 230 225 220 194 192 191 192 198 212 215 218 214 205
249 241 186 185 199 216 232 240 237 241 249 242 232 225 216 212 209 213 216 223 230 239 231 216 233 225 235 239 232 200 203 199 191 197 201 207 215 217
277 256 187 199 210 222 227 231 226 235 246 245 243 234 220 213 208 207 216 218 231 241 236 222 225 230 228 240 237 216 212 207 194 200 200 197 198 198
261 248 200 204 219 231 226 224 226 236 239 248 251 241 223 211 210 209 216 213 226 239 235 221 220 223 232 234 231 231 215 205 198 200 205 205 196 195
212 217 217 213 221 225 226 224 221 226 238 245 249 252 244 235 225 212 213 227 232 234 233 229 222 220 226 226 234 233 223 223 212 205 212 217 214 204
198 221 226 228 231 232 231 227 220 222 232 237 238 238 237 236 234 227 216 228 241 242 235 222 213 222 241 245 225 232 234 232 228 218 224 225 226 203
209 231 231 230 236 240 236 234 233 227 226 233 237 238 236 235 232 232 230 233 238 236 235 223 211 211 230 244 244 215 215 227 225 224 223 223 226 210
224 233 237 235 238 243 242 241 242 236 231 238 243 249 245 244 244 237 229 234 239 240 243 234 216 215 223 233 238 238 213 210 209 222 232 230 218 171
231 234 239 240 238 236 235 233 238 243 240 237 240 248 252 252 252 250 240 235 237 243 248 246 234 221 218 209 238 241 217 210 207 206 207 208 213 203
236 237 243 248 244 244 238 237 243 240 237 240 245 247 252 256 260 258 251 243 235 241 248 241 214 211 213 218 242 248 233 203 225 227 222 215 205 208
233 237 239 245 242 236 241 248 254 253 242 247 253 254 255 259 263 263 259 257 257 253 241 227 222 223 235 231 240 249 238 213 208 208 233 226 204 192